Location: Eschentzwiller
(47.7125°N, 7.3981°E)
Time: 00:57:03
(UTC+00:00)

CSL-04 Debris - Pass Details

Date: 27 October 2020
Orbit: 827 x 848 km, 98.9° (Epoch: 26 November)

Event Time Altitude Azimuth Distance (km) Brightness Sun altitude
Rises 18:07:36 0° 157° (SSE) 3,372 7.1 -18.6°
Reaches altitude 10° 18:09:57 10° 156° (SSE) 2,445 6.4 -19.0°
Maximum altitude 18:15:21 74° 72° (ENE) 877 4.1 -19.9°
Drops below altitude 10° 18:20:49 10° 348° (NNW) 2,475 6.8 -20.8°
Sets 18:23:12 0° 347° (NNW) 3,417 7.6 -21.2°
